Regional Weather Roundup
Issued by NWS

Home | Current Version | Previous Version | Graphics & Text | Print | Product List | Glossary On
Versions: 1 2 3 4 5 6 7 8 9 10 11 12 13 14 15 16 17 18 19 20 21 22 23 24 25 26 27 28 29 30 31 32 33 34 35 36 37 38 39 40 41 42 43 44 45 46 47 48 49 50
000
ASUS45 KTFX 280704
RWRMT
MONTANA HOURLY WEATHER ROUNDUP
NATIONAL WEATHER SERVICE GREAT FALLS MT
104 AM MDT MON JUL 28 2014

NOTE: "FAIR" INDICATES FEW OR NO CLOUDS BELOW 12000 FEET WITH NO
SIGNIFICANT WEATHER AND/OR OBSTRUCTIONS TO VISIBILITY.

* THESE STATIONS ARE NOT UNDER NWS QUALITY CONTROL. THEY DO NOT
   REPORT WEATHER SUCH AS PRECIPITATION OR FOG.

MTZ001>007-043-280800-
WEST OF THE DIVIDE
CITY           SKY/WX    TMP DP  RH WIND       PRES   REMARKS
KALISPELL      PTCLDY    57  48  72 W5        30.16S
MISSOULA       CLEAR     66  43  43 CALM      30.18R
BUTTE          CLEAR     57  32  39 VRB5      30.33R
MULLAN PASS    CLOUDY    66  34  31 SE6       30.33S
* ESSEX        N/A       59  43  56 S8G13      N/A
* LINCOLN      N/A       55  47  75 W2G7       N/A
* LOOKOUT PASS N/A       64  42  45 N/A        N/A
* POLSON       N/A       67  39  36 NE2        N/A
* RONAN APT    PTCLDY    57  50  78 N/A        N/A
* SEELEY LAKE  N/A       50  39  66 NE2        N/A
* THOMP F APT  CLOUDY    68  28  22 N3G8       N/A
* YAAK HILL    N/A       63  45  52 SE1        N/A
$$

MTZ008-052>055-280800-
SOUTHWEST MONTANA
CITY           SKY/WX    TMP DP  RH WIND       PRES   REMARKS
BOZEMAN        CLEAR     61  39  44 W6        30.25R
DILLON         CLEAR     57  37  47 E7        30.27R
W YELLOWSTONE  PTCLDY    48  36  63 CALM      30.40S
* THREE FORKS  CLEAR     55  46  72 N/A        N/A
* BOULDER HILL N/A       61  31  32 W1         N/A
* RAYNOLDS PAS N/A       56  39  53 SE3        N/A
* WHITEHALL    N/A       68  34  28 NW6G11     N/A
* WISE RIVER   N/A       59  32  36 S4         N/A
$$

MTZ009>010-012-014-046-048-049-054-280800-
EAST SLOPES AND CENTRAL MONTANA
CITY           SKY/WX    TMP DP  RH WIND       PRES   REMARKS
CUT BANK       CLEAR     61  43  52 CALM      30.26R
GREAT FALLS    CLEAR     68  39  35 E12       30.21R
HELENA         CLEAR     73  36  26 W9        30.22R
* CONRAD       CLEAR     57  48  72 N/A        N/A
* DEARBORN     N/A       65  42  43 SW1        N/A
* EAST GLACIER N/A       52  42  69 NW5G11     N/A
* MONARCH      N/A       56  36  47 E7         N/A
* ROGERS PASS  N/A       59  35  41 NW3        N/A
* SAINT MARY   N/A       47  42  83 SE3        N/A
* SWEET GRASS  N/A       67  41  39 S14G19     N/A
$$

MTZ011-013-016-021-035-040-045-047-050-051-280800-
NORTH CENTRAL MONTANA
CITY           SKY/WX    TMP DP  RH WIND       PRES   REMARKS
HAVRE          CLEAR     64  45  50 E9        30.22R
LEWISTOWN      CLEAR     64  39  40 E14       30.30R
* CHESTER      N/A       69  42  38 SE6G13     N/A
* DENTON       N/A       70  41  35 E14G20     N/A
* JUDITH GAP   N/A       65  39  39 SE7G15     N/A
* LOMA         N/A       70  42  36 NE14       N/A
$$

MTZ017>020-022>027-061-062-280800-
NORTHEAST MONTANA
CITY           SKY/WX    TMP DP  RH WIND       PRES   REMARKS
GLASGOW        CLEAR     61  52  72 E12       30.26R
GLENDIVE       CLEAR     61  52  72 CALM      30.32S
JORDAN         CLEAR     55  43  64 CALM      30.27R
SIDNEY         CLEAR     55  48  77 CALM      30.32R
WOLF POINT     CLEAR     57  50  78 NE6       30.29R
* BEAVER HILL  N/A       56  52  87 SE11       N/A
* CIRCLE       N/A       62  53  73 N/A        N/A
* LINDSAY DVD  N/A       55  50  83 E6         N/A
* NAVAJO       N/A       53  50  90 S4         N/A
$$

MTZ028>042-056>058-280800-
SOUTHCENTRAL AND SOUTHEAST MONTANA
CITY           SKY/WX    TMP DP  RH WIND       PRES   REMARKS
BAKER          CLEAR     54  52  93 SE7       30.34R
BILLINGS       CLEAR     66  41  40 N10       30.26S
LIVINGSTON     CLEAR     64  39  40 E8        30.29R
MILES CITY     CLEAR     66  52  61 SE9       30.28R
* LAUREL APT   CLEAR     70  39  32 N7         N/A
* ROUNDUP APT  CLEAR     66  37  34 NE6        N/A
* ALZADA       N/A       59  53  81 E9         N/A
* HYSHAM       N/A       68  41  38 E10G15     N/A
* LAME DEER    N/A       64  43  47 E8G13      N/A
* REED POINT   N/A       58  42  55 N/A        N/A
* ROSCOE HILL  N/A       63  36  37 SW1G7      N/A
$$

REGIONAL REPORTS...DAKOTAS
CITY           SKY/WX    TMP DP  RH WIND       PRES   REMARKS
WILLISTON      CLEAR     54  50  86 CALM      30.31R
DICKINSON      CLEAR     52  48  86 SE7       30.32S
CROSBY         CLOUDY    55  55 100 SW5       30.31S
TIOGA          CLEAR     46  46 100 CALM      30.34F
WATFORD CITY   CLEAR     54  50  86 CALM      30.30R
BISMARCK       CLEAR     48  48 100 CALM      30.32R
GRAND FORKS    CLOUDY    61  55  81 NW5        N/A
FARGO          CLOUDY    61  55  81 NW7       30.22R
BUFFALO SD     CLEAR     57  52  83 S6        30.29R
RAPID CITY     CLEAR     54  50  86 CALM      30.36R
$$

REGIONAL REPORTS...WYOMING/IDAHO/WASHINGTON
CITY           SKY/WX    TMP DP  RH WIND       PRES   REMARKS
GILLETTE       CLEAR     55  43  64 CALM      30.34F
SHERIDAN       CLEAR     63  45  52 CALM      30.31R
YELLOWSTONE LA PTCLDY    45  36  71 NW3       30.52R
MULLAN PASS    CLOUDY    66  34  31 SE6       30.33S
SAND POINT     PTCLDY    55  50  83 CALM      30.11S
SPOKANE        CLOUDY    75  41  30 NW3       30.10S

$$




USA.gov is the U.S. government's official web portal to all federal, state and local government web resources and services.